Location: Nelson
(41.2830°S, 173.2830°E)
Time: 23:02:49
(UTC+13:00)

Helios 1B rocket - Pass Details

Date: 24 January 2019
Orbit: 575 x 585 km, 98.2° (Epoch: 22 February)

Event Time Altitude Azimuth Distance (km) Brightness Sun altitude
Exits shadow 23:01:08 49° 39° (NE) 763 2.6 -19.3°
Maximum altitude 23:02:08 71° 105° (ESE) 623 2.4 -19.4°
Drops below altitude 10° 23:06:18 10° 189° (S) 1,927 6.0 -19.9°
Sets 23:08:29 0° 190° (S) 2,837 7.0 -20.2°
